User: anonymous   Login
Location: Unspecified
(0.0000°N, 0.0000°E)
Time: 14:41:17
(UTC+01:00)
Language:

Cosmos 1263 Rocket - Orbit

View from above orbital plane
View from above orbital plane
View from above satellite
View from above satellite

Ground track
Ground track

The orbit data is extracted from the following two-line orbital elements,

1 12389U 81033B   14302.70774480  .00064689  00000-0  79153-3 0  1336
2 12389 082.8712 337.0893 0175547 348.4676 150.4134 15.43775481730398
Epoch (UTC): 29 October 2014 16:59:09
Eccentricity: 0.0175547
inclination: 82.8712°
perigee height: 315 km
apogee height: 554 km
right ascension of ascending node: 337.0893°
argument of perigee: 348.4676°
revolutions per day: 15.43775481
mean anomaly at epoch: 150.4134°
orbit number at epoch: 73039

The dashed part of the orbit path shows where the satellite is in the earth's shadow,  

DLR